sat.trackr.live / text

‹ back to catalog

KAZSAT-2

NORAD 37749 · 2011-035B

PAYLOAD ACTIVE UNKNOWN

§ Identity

Operator
Country
KAZ
Launch date
2011-07-15
Launch site
TYMSC
Launch vehicle
Mass (kg)
RCS (m²)
7.08

Purposes: comms

External: N2YO · Heavens-Above · Gunter

§ Orbital elements

Epoch: 2026-05-25T02:26:37.792320Z

Period
1,436.08 min
Inclination
0.0399°
Eccentricity
0.0000475
Mean motion
1.00273295 rev/d
Perigee alt
35,784.2 km
Apogee alt
35,788.2 km
Semi-major
42,164.3 km
B*
0.0000e+0
RAAN
258.6208°
Arg perigee
222.5967°
Mean anomaly
244.6345°
Rev number
5,316

§ Raw data

KAZSAT-21 37749U 11035B   26145.10182630 -.00000200  00000+0  00000+0 0  99902 37749   0.0399 258.6208 0000475 222.5967 244.6345  1.00273295 53165

JSON: /api/v1/satellites/37749 · /tle

For live sub-satellite position, see the globe view (requires WebGL).

§ Visibility from observer

Set your observer location to see the next 7 days of passes ≥ 10°. The values pass through the URL so the page stays shareable.

No JS? Fill the form by hand. The geolocation button needs JavaScript.